Powrót do katalogu

STARLINK-36276

AktywnyŁącznośćVLEO
NORAD 67852·PAYLOAD·🇺🇸 United States

Wystrzelony Feb 20, 2026 z Vandenberg Space Force Base

Loading…

Następne Przeloty (najbliższe 24 godziny)

TLE

ŚwieżeSource: CelesTrak SupGP

Epoka: Sep 14, 2026, 15:36 UTC

1 67852C 26034C   26257.65048611 -.00074811  00000+0 -22104-2 0  2576
2 67852  53.1592  45.0609 0001163  87.4354  58.7086 15.34426616    14

Śledź STARLINK-36276 w czasie rzeczywistym z AllMySat

Download on the App Store